Weather History for Fort Myers Airport, FL

Change the Weather History Date:

Saturday, December 8, 2012

  Actual Average Record
Temperature  
Mean Temperature 71 °F -  
Max Temperature 80 °F 78 °F 90 °F (1978)
Min Temperature 62 °F 57 °F 37 °F (1937)
Cooling Degree Days 6    
Growing Degree Days 21 (Base 50)    
Moisture  
Dew Point 66 °F    
Average Humidity 92    
Maximum Humidity 100    
Minimum Humidity 62    
Precipitation  
Precipitation 0.06 in - - ()
Sea Level Pressure  
Sea Level Pressure 30.00 in    
Wind  
Wind Speed 3 mph (East)    
Max Wind Speed 13 mph    
Max Gust Speed -    
Visibility 8 miles    
Events Fog , Rain    
Averages and records for this station are not official NWS values.
T = Trace of Precipitation, MM = Missing Value Source: NWS Daily Summary

Daily Weather History Graph

Daily Weather History Graph

Search for Another Location

Airport:

Trip Planner

Search our weather history database for the weather conditions in past years. The results will help you decide how hot, cold, wet, or windy it might be!

Date:

Astronomy

Dec. 08, 2012 Rise Set
Actual Time 7:03 AM EST 5:34 PM EST
Civil Twilight 6:38 AM EST 6:00 PM EST
Nautical Twilight 6:09 AM EST 6:28 PM EST
Astronomical Twilight 5:41 AM EST 6:57 PM EST
Moon 1:50 AM EST (12/8) 1:43 PM EST (12/8)
Length of Visible Light 11h 22m
Length of Day
10h 31m
Waning Crescent, 28% of the Moon is Illuminated
Dec 8
Waning Crescent
Dec 13
New
Dec 20
First Quarter
Dec 28
Full
Jan 4
Last Quarter

Hourly Weather History & Observations

Time (EST) Temp. Heat Index Dew Point Humidity Pressure Visibility Wind Dir Wind Speed Gust Speed Precip Events Conditions
12:11 AM 66.2 °F - 66.2 °F 100% 29.98 in 10.0 mi East 3.5 mph - N/A   Overcast
12:53 AM 66.0 °F - 66.0 °F 100% 29.97 in 10.0 mi Calm Calm - N/A   Overcast
1:53 AM 64.9 °F - 64.9 °F 100% 29.97 in 9.0 mi Calm Calm - N/A   Partly Cloudy
2:53 AM 64.9 °F - 64.0 °F 97% 29.96 in 10.0 mi ESE 4.6 mph - N/A   Clear
3:53 AM 64.9 °F - 64.0 °F 97% 29.96 in 7.0 mi ESE 3.5 mph - N/A   Clear
4:36 AM 64.4 °F - 64.4 °F 100% 29.98 in 1.8 mi Calm Calm - N/A   Clear
4:42 AM 64.4 °F - 64.4 °F 100% 29.97 in 3.0 mi Calm Calm - N/A   Partly Cloudy
4:53 AM 64.0 °F - 64.0 °F 100% 29.97 in 9.0 mi Calm Calm - N/A   Clear
5:53 AM 64.4 °F - 64.4 °F 100% 29.99 in 6.0 mi Calm Calm - N/A   Clear
6:45 AM 64.4 °F - 62.6 °F 94% 30.00 in 1.5 mi Calm Calm - N/A   Clear
6:53 AM 64.0 °F - 63.0 °F 96% 29.99 in 7.0 mi Calm Calm - N/A Fog Shallow Fog
7:00 AM 62.6 °F - 62.6 °F 100% 30.00 in 2.5 mi Calm Calm - N/A Fog Shallow Fog
7:02 AM 62.6 °F - 62.6 °F 100% 30.00 in 1.2 mi Calm Calm - N/A Fog Shallow Fog
7:09 AM 62.6 °F - 62.6 °F 100% 30.00 in 0.5 mi Calm Calm - N/A Fog Shallow Fog
7:15 AM 62.6 °F - 62.6 °F 100% 30.00 in 2.0 mi Calm Calm - N/A Fog Shallow Fog
7:27 AM 64.4 °F - 62.6 °F 94% 30.01 in 10.0 mi Calm Calm - N/A   Clear
7:53 AM 64.9 °F - 64.0 °F 97% 30.01 in 10.0 mi Calm Calm - N/A   Clear
8:53 AM 71.1 °F - 66.9 °F 87% 30.03 in 10.0 mi ESE 4.6 mph - N/A   Clear
9:53 AM 73.9 °F - 68.0 °F 82% 30.03 in 10.0 mi ESE 9.2 mph - N/A   Clear
10:53 AM 77.0 °F - 68.0 °F 74% 30.02 in 10.0 mi East 10.4 mph - N/A   Partly Cloudy
11:53 AM 78.1 °F - 66.9 °F 68% 30.00 in 10.0 mi ESE 5.8 mph - N/A   Scattered Clouds
12:21 PM 78.8 °F - 66.2 °F 65% 29.99 in 10.0 mi SE 8.1 mph - N/A   Mostly Cloudy
12:30 PM 78.8 °F - 66.2 °F 65% 29.99 in 10.0 mi ESE 4.6 mph - N/A   Scattered Clouds
12:53 PM 79.0 °F - 64.9 °F 62% 29.98 in 10.0 mi SSE 4.6 mph - N/A   Partly Cloudy
1:53 PM 80.1 °F 82.1 °F 66.0 °F 62% 29.95 in 10.0 mi East 5.8 mph - N/A   Mostly Cloudy
2:53 PM 73.9 °F - 69.1 °F 85% 29.96 in 2.5 mi SSW 12.7 mph - 0.05 in Rain Rain
3:03 PM 71.6 °F - 68.0 °F 88% 29.97 in 10.0 mi SSW 11.5 mph - 0.00 in Rain Light Rain
3:53 PM 71.1 °F - 69.1 °F 93% 29.97 in 10.0 mi South 10.4 mph - 0.01 in   Overcast
4:53 PM 71.1 °F - 69.1 °F 93% 29.98 in 10.0 mi North 3.5 mph - 0.00 in   Overcast
5:53 PM 70.0 °F - 68.0 °F 93% 29.99 in 10.0 mi NNW 3.5 mph - N/A   Overcast
6:10 PM 69.8 °F - 68.0 °F 94% 30.00 in 10.0 mi NNE 3.5 mph - N/A   Scattered Clouds
6:53 PM 69.1 °F - 66.9 °F 93% 30.01 in 10.0 mi NE 6.9 mph - N/A   Clear
7:53 PM 68.0 °F - 66.9 °F 96% 30.01 in 10.0 mi Calm Calm - N/A   Clear
8:53 PM 66.9 °F - 66.0 °F 97% 30.03 in 10.0 mi Calm Calm - N/A   Clear
9:53 PM 66.0 °F - 66.0 °F 100% 30.04 in 2.0 mi Calm Calm - N/A   Clear
10:07 PM 66.2 °F - 66.2 °F 100% 30.05 in 10.0 mi NW 3.5 mph - N/A   Clear
10:41 PM 64.4 °F - 64.4 °F 100% 30.05 in 10.0 mi NNE 4.6 mph - N/A   Partly Cloudy
10:53 PM 66.0 °F - 66.0 °F 100% 30.04 in 10.0 mi NNE 3.5 mph - N/A   Partly Cloudy
11:53 PM 64.9 °F - 64.9 °F 100% 30.04 in 7.0 mi East 3.5 mph - N/A   Scattered Clouds